Theta_e
305 303 303 295 293 297 287 288 287 292 298 307 313 314 317 320 321 322 324 326 328 330 330 333 335 338 341 342 343 345 348 348
302 304 302 300 297 290 285 285 285 287 292 296 306 311 313 317 321 323 325 325 327 329 330 332 335 337 340 343 343 345 347 348
300 297 298 294 295 291 292 287 288 283 291 300 305 309 311 315 322 324 325 327 326 328 330 332 335 337 340 342 343 344 346 347
297 299 304 302 298 295 289 287 288 292 291 302 306 307 312 315 319 324 327 328 328 327 329 330 333 336 340 342 343 344 347 347
288 292 295 296 298 298 296 289 293 288 290 301 304 308 311 314 317 320 326 325 327 327 327 328 332 336 339 342 344 345 346 347
288 289 294 293 297 299 296 291 293 295 292 296 301 303 308 315 317 318 322 324 326 326 327 328 331 336 337 342 344 345 345 346
292 295 297 296 298 299 294 297 294 296 295 298 300 304 307 312 317 319 320 322 325 326 327 326 328 334 337 341 345 346 345 346
290 296 298 296 298 300 300 300 297 294 294 300 303 302 303 307 314 317 319 323 323 324 328 329 330 333 337 338 343 347 346 346
285 293 293 292 297 299 300 301 300 294 297 300 300 301 302 304 308 316 320 322 320 320 324 327 331 334 335 338 342 347 347 348
285 289 285 297 303 304 301 301 300 299 300 302 303 305 307 306 308 313 317 319 319 321 321 322 328 333 337 339 339 345 347 348
285 285 292 299 300 300 298 297 303 302 303 303 304 303 303 308 309 314 316 317 322 324 325 324 326 332 335 336 339 343 345 347
287 285 285 295 308 312 305 297 304 304 304 304 303 298 305 307 312 314 315 315 318 323 327 328 329 334 336 337 339 340 345 347
289 288 292 306 310 313 295 297 306 310 307 304 302 305 308 309 314 311 312 314 316 321 327 331 331 332 333 336 337 341 344 348
290 290 287 310 310 301 304 309 312 314 310 305 306 308 313 318 321 322 320 314 313 314 322 327 334 333 331 331 337 340 342 342
295 295 305 309 310 312 313 311 311 318 314 314 317 319 321 322 322 325 325 332 327 312 312 313 326 335 332 334 336 336 338 339
299 306 308 311 313 313 315 317 328 329 325 323 326 328 329 332 333 335 337 339 339 338 338 338 342 332 334 336 336 334 334 335
298 306 311 312 312 313 314 317 325 328 328 329 332 331 332 334 335 338 340 341 342 341 340 341 344 344 345 343 340 339 339 337
297 306 308 308 313 316 314 314 316 318 320 321 324 327 331 330 332 334 335 337 339 341 342 342 342 341 343 346 347 347 346 345
307 310 311 313 314 316 315 315 317 317 318 319 322 324 326 326 328 326 333 334 334 336 339 339 338 338 340 341 340 336 333 330
Wind_Speed
13 7 18 9 13 12 3 2 3 6 9 6 9 11 12 13 13 20 24 24 25 24 23 22 21 24 24 22 22 20 20 16
10 10 9 14 9 5 2 12 15 6 8 7 10 17 12 11 16 20 21 22 24 23 22 21 21 21 21 21 23 22 22 19
7 9 19 4 10 5 8 7 11 2 11 10 9 11 13 15 18 22 22 23 23 21 20 22 20 20 22 19 21 20 20 18
18 5 14 19 14 12 6 10 7 11 11 3 17 15 10 11 14 20 23 21 19 20 20 18 18 16 20 21 20 20 19 18
7 3 3 8 10 16 12 1 22 8 6 8 7 7 9 11 10 8 16 14 19 17 17 18 19 20 20 20 22 21 19 19
11 4 5 8 10 15 16 12 12 20 4 4 6 11 9 9 10 9 14 17 18 14 15 16 18 21 19 20 20 19 19 20
7 11 15 15 15 25 19 23 17 13 14 13 10 10 10 10 6 8 9 14 18 18 17 15 14 16 17 16 17 19 19 20
7 10 13 16 19 24 29 22 14 7 8 10 15 9 8 11 9 11 14 17 17 18 18 18 19 21 22 20 19 19 20 22
5 6 11 14 30 20 12 13 18 15 9 8 8 10 13 13 11 14 15 18 15 13 16 16 18 19 20 22 20 22 22 19
6 5 9 12 10 19 17 9 7 5 11 11 15 14 15 13 11 12 11 12 12 11 13 12 17 18 18 14 17 18 19 18
4 4 10 12 3 6 13 10 7 12 10 10 11 1 6 7 7 12 12 13 14 13 11 10 11 12 12 12 15 15 18 18
3 5 7 2 15 21 14 19 16 13 11 10 7 4 12 7 8 11 10 8 9 10 7 9 9 14 14 14 15 18 18 20
11 5 10 12 21 10 8 7 15 12 16 11 8 10 11 7 8 7 8 10 4 8 12 14 11 13 15 15 19 21 18 16
8 8 9 12 9 8 10 23 19 10 7 11 9 7 5 7 6 8 9 8 8 6 9 9 8 12 12 15 19 16 16 16
9 7 4 4 3 9 13 20 17 12 8 8 8 6 8 7 5 5 6 4 3 3 3 1 3 7 13 20 17 16 15 17
5 5 6 9 13 14 20 20 12 8 5 6 9 5 7 6 5 6 6 7 5 8 8 7 5 3 6 7 4 3 7 9
15 4 4 9 12 17 24 16 10 14 16 13 9 8 7 7 9 8 8 10 9 10 9 10 8 7 6 3 6 6 5 4
10 6 4 5 7 15 18 10 11 16 18 18 18 14 12 12 10 10 10 10 11 11 10 10 11 12 11 9 6 7 7 7
5 3 16 8 10 14 11 4 11 15 14 16 14 10 11 7 9 7 9 9 9 7 7 8 8 10 9 9 11 11 10 10
Wind_Direction
195 175 172 197 192 193 147 209 12 222 279 315 216 244 233 219 213 209 201 202 206 207 205 203 197 198 196 193 197 194 195 193
203 173 220 192 172 156 338 214 240 252 244 215 191 220 227 214 209 214 209 199 208 208 204 201 201 201 200 198 195 191 194 193
136 189 196 166 204 198 171 166 220 217 257 181 212 213 213 214 211 214 205 203 205 210 204 204 199 193 196 198 197 199 194 194
228 220 193 212 214 193 181 229 241 229 233 252 199 213 207 240 221 218 210 208 206 206 203 200 202 194 193 194 194 199 196 196
325 337 248 208 200 205 207 130 228 199 247 237 198 207 212 212 237 231 220 203 204 204 201 198 195 194 196 196 199 195 192 193
249 276 181 208 214 212 197 223 216 232 209 211 211 217 219 231 228 201 188 188 199 202 199 197 196 197 195 200 198 193 193 194
285 294 287 262 226 216 211 219 202 223 205 230 202 204 221 220 214 183 206 201 201 201 192 187 186 193 201 201 196 192 194 199
283 263 254 260 257 233 217 218 230 195 228 212 218 219 218 223 204 201 203 203 213 211 199 197 192 192 193 191 191 191 196 203
269 306 319 255 230 244 247 204 201 207 201 197 240 203 219 231 216 203 204 215 197 208 207 206 203 196 199 196 184 187 198 198
267 314 221 281 195 220 230 229 202 149 189 200 210 222 221 211 201 216 201 208 219 203 208 212 212 199 202 186 190 195 196 195
233 242 289 306 1 236 183 230 208 188 201 208 222 31 261 226 214 205 201 203 213 208 214 205 188 187 164 171 182 188 196 198
184 230 246 101 328 322 312 224 201 183 199 197 127 193 248 199 209 226 219 205 185 200 188 174 182 155 161 174 180 196 198 201
247 254 280 349 331 315 163 242 307 187 200 177 175 199 223 173 206 203 196 208 212 166 182 198 171 166 182 184 193 202 201 200
231 220 255 7 10 8 306 300 292 262 189 177 197 179 191 151 163 160 167 174 189 196 194 181 166 174 186 195 211 200 193 194
203 228 151 165 244 302 314 294 286 284 136 133 143 174 150 144 146 115 106 94 90 218 273 353 178 189 191 214 205 194 186 195
259 222 233 41 5 349 332 309 298 325 19 112 112 82 94 99 73 58 45 46 41 66 60 46 18 306 275 340 18 151 183 202
225 274 269 52 17 342 319 311 23 38 37 38 66 55 65 58 48 41 38 34 44 52 51 44 46 50 18 304 168 177 181 184
218 185 127 81 11 327 309 312 46 54 41 39 41 40 44 48 39 38 38 33 40 36 44 36 37 34 25 30 55 78 72 62
225 197 110 107 31 310 277 344 61 64 58 55 47 50 51 54 41 57 60 57 58 53 49 43 41 44 40 51 70 73 78 77